CW1546 Weather Reports


time (UTC)temp
F
wind
direction
speed
knots
gust
knots
rain 1hr
in
rain 24hr
in
rain mn
in
humidity
%
barometer
mb
20260505210548 69 213 3.5 13.9 0.00 0.09 0.09 42 1011.2
20260505210105 69 208 4.3 13.9 0.00 0.09 0.09 42 1011.3
20260505205549 70 215 6.1 13.0 0.00 0.09 0.09 42 1011.3
20260505205053 69 140 6.1 13.0 0.00 0.09 0.09 43 1011.4
20260505204616 69 214 5.2 13.0 0.00 0.09 0.09 45 1011.4
20260505204032 69 162 7.0 13.0 0.00 0.09 0.09 44 1011.3
20260505203531 69 212 2.6 12.2 0.00 0.09 0.09 46 1011.5
20260505203037 69 203 5.2 13.0 0.00 0.09 0.09 47 1011.5
20260505202541 69 224 5.2 13.0 0.00 0.09 0.09 47 1011.4
20260505202045 69 211 1.7 12.2 0.00 0.09 0.09 48 1011.5
20260505201529 69 214 4.3 11.3 0.00 0.09 0.09 48 1011.5
20260505201032 69 221 4.3 11.3 0.00 0.09 0.09 49 1011.5
20260505200535 68 215 1.7 9.6 0.00 0.09 0.09 50 1011.6
20260505200109 68 210 3.5 10.4 0.00 0.09 0.09 50 1011.8
20260505195531 67 211 4.3 12.2 0.00 0.09 0.09 50 1011.7
20260505195057 67 218 4.3 15.6 0.00 0.09 0.09 50 1011.7
20260505194533 67 192 7.0 15.6 0.00 0.09 0.09 50 1011.9
20260505194116 68 216 4.3 12.2 0.00 0.09 0.09 50 1011.7
20260505193532 68 153 4.3 11.3 0.00 0.09 0.09 49 1011.7
20260505193057 67 189 4.3 16.5 0.00 0.09 0.09 50 1011.7
20260505192542 67 201 6.1 16.5 0.00 0.09 0.09 49 1011.8
20260505192049 67 189 7.0 15.6 0.00 0.09 0.09 50 1011.9
20260505191551 66 194 4.3 12.2 0.00 0.09 0.09 54 1011.9
20260505191031 66 203 6.1 14.8 0.00 0.09 0.09 54 1011.9
20260505190538 65 205 7.8 14.8 0.00 0.09 0.09 54 1011.9
20260505190056 65 215 7.0 14.8 0.00 0.09 0.09 54 1011.9
20260505185539 65 224 7.0 16.5 0.00 0.09 0.09 53 1012.0
20260505185103 65 171 5.2 16.5 0.00 0.09 0.09 54 1012.2
20260505184545 65 198 2.6 12.2 0.00 0.09 0.09 56 1012.2
20260505184045 65 197 4.3 12.2 0.00 0.09 0.09 55 1012.1
20260505183530 65 195 3.5 11.3 0.00 0.09 0.09 56 1012.3
20260505183034 64 208 4.3 11.3 0.00 0.09 0.09 59 1012.3
20260505182559 63 215 6.1 13.9 0.00 0.09 0.09 59 1012.2
20260505182041 62 197 6.1 17.4 0.00 0.09 0.09 60 1012.1
20260505181544 62 196 6.1 14.8 0.00 0.09 0.09 61 1012.1
20260505181047 62 208 5.2 11.3 0.00 0.09 0.09 60 1012.4
20260505180548 62 216 2.6 10.4 0.00 0.09 0.09 62 1012.3
20260505180059 62 222 4.3 10.4 0.00 0.09 0.09 63 1012.3
20260505175542 62 212 4.3 8.7 0.00 0.09 0.09 63 1012.4
20260505175046 61 201 3.5 8.7 0.00 0.09 0.09 63 1012.2
20260505174548 61 172 1.7 6.1 0.00 0.09 0.09 64 1012.3
20260505174053 61 170 0.9 5.2 0.00 0.09 0.09 66 1012.4
20260505173553 61 166 0.0 5.2 0.00 0.09 0.09 66 1012.5
20260505173035 61 159 0.9 4.3 0.00 0.09 0.09 66 1012.5
20260505172600 61 155 0.0 5.2 0.00 0.09 0.09 67 1012.4
20260505172046 61 155 1.7 7.0 0.00 0.09 0.09 66 1012.6
20260505171531 61 185 3.5 7.0 0.00 0.09 0.09 67 1012.5
20260505171034 61 219 2.6 6.1 0.00 0.09 0.09 70 1012.6
20260505170542 60 219 0.0 2.6 0.00 0.09 0.09 73 1012.6
20260505170058 60 219 0.9 3.5 0.00 0.09 0.09 74 1012.6
20260505165601 60 219 0.0 5.2 0.00 0.09 0.09 73 1012.6
20260505165044 59 219 1.7 6.1 0.00 0.09 0.09 73 1012.6
20260505164549 59 220 2.6 7.0 0.00 0.09 0.09 77 1012.8
20260505164030 59 222 2.6 7.0 0.00 0.09 0.09 83 1012.7
20260505163538 58 230 1.7 5.2 0.00 0.09 0.09 87 1012.5
20260505163044 58 339 0.0 1.7 0.00 0.09 0.09 88 1012.5
20260505162547 57 339 0.0 0.9 0.00 0.09 0.09 88 1012.4
20260505162049 57 339 0.0 0.9 0.00 0.09 0.09 89 1012.3
20260505161535 57 339 0.0 0.9 0.01 0.09 0.09 89 1012.3
20260505161057 57 339 0.0 0.9 0.02 0.09 0.09 91 1012.3
20260505160540 56 339 0.0 0.9 0.03 0.09 0.09 91 1012.4
20260505153041 54 339 0.0 0.0 0.07 0.09 0.09 91 1012.2
20260505152544 54 339 0.0 0.0 0.07 0.09 0.09 90 1012.2
20260505152048 54 339 0.0 0.0 0.07 0.09 0.09 90 1012.3
20260505151534 54 339 0.0 0.0 0.06 0.08 0.08 90 1012.4
20260505151053 54 339 0.0 0.0 0.05 0.07 0.07 90 1012.4
20260505150530 54 339 0.0 0.9 0.04 0.06 0.06 90 1012.3
20260505150106 54 339 0.0 0.9 0.03 0.05 0.05 90 1012.3
20260505022046 67 218 2.6 11.3 0.00 0.00 0.00 40 1012.7
20260505021532 67 225 3.5 11.3 0.00 0.00 0.00 40 1012.8
20260505021032 67 191 5.2 9.6 0.00 0.00 0.00 40 1012.8
20260505020540 67 210 3.5 7.8 0.00 0.00 0.00 39 1012.5
20260505020118 67 211 4.3 7.8 0.00 0.00 0.00 39 1012.5
20260505015537 67 211 2.6 8.7 0.00 0.00 0.00 39 1012.7
20260505015042 67 212 4.3 10.4 0.00 0.00 0.00 39 1012.8
20260505014542 67 212 4.3 9.6 0.00 0.00 0.00 38 1012.8
20260505014047 68 213 2.6 8.7 0.00 0.00 0.00 38 1012.8
20260505013553 68 214 4.3 8.7 0.00 0.00 0.00 37 1012.7
20260505013029 68 216 3.5 7.0 0.00 0.00 0.00 37 1012.7
20260505012537 68 216 2.6 7.0 0.00 0.00 0.00 36 1012.8
20260505012043 68 217 2.6 7.0 0.00 0.00 0.00 36 1012.7
20260505011531 68 217 3.5 7.0 0.00 0.00 0.00 36 1012.7
20260505011053 68 219 1.7 10.4 0.00 0.00 0.00 36 1012.7
20260505010535 68 217 3.5 10.4 0.00 0.00 0.00 35 1012.7
20260505010112 68 179 4.3 10.4 0.00 0.00 0.00 35 1012.8
20260505005617 68 207 5.2 9.6 0.00 0.00 0.00 35 1012.9
20260505005031 69 214 2.6 7.8 0.00 0.00 0.00 34 1012.9
20260505004552 69 214 5.2 12.2 0.00 0.00 0.00 34 1013.1
20260505004030 69 212 7.0 12.2 0.00 0.00 0.00 34 1013.0
20260505003557 69 212 7.0 12.2 0.00 0.00 0.00 33 1013.1
20260505003035 69 158 2.6 9.6 0.00 0.00 0.00 33 1012.9
20260505002540 69 168 4.3 9.6 0.00 0.00 0.00 33 1012.8
20260505002044 70 197 2.6 7.8 0.00 0.00 0.00 33 1012.6
20260505001548 70 208 4.3 7.0 0.00 0.00 0.00 32 1012.3
20260505001050 70 212 2.6 7.8 0.00 0.00 0.00 32 1012.5
20260505000558 70 217 3.5 11.3 0.00 0.00 0.00 31 1012.6
20260505000109 70 218 4.3 11.3 0.00 0.00 0.00 31 1012.6
20260504235556 70 218 5.2 9.6 0.00 0.00 0.00 31 1012.4
20260504235032 70 208 6.1 9.6 0.00 0.00 0.00 30 1012.6
20260504234559 70 209 1.7 14.8 0.00 0.00 0.00 29 1012.7
20260504234118 71 203 7.0 14.8 0.00 0.00 0.00 29 1013.0
20260504233534 70 218 2.6 7.8 0.00 0.00 0.00 29 1012.9
20260504233039 71 216 1.7 7.8 0.00 0.00 0.00 29 1012.8
20260504232607 71 216 2.6 7.8 0.00 0.00 0.00 28 1012.8
20260504232050 71 215 1.7 10.4 0.00 0.00 0.00 29 1012.8
20260504231553 71 212 5.2 11.3 0.00 0.00 0.00 28 1012.6
20260504231031 71 161 5.2 11.3 0.00 0.00 0.00 29 1012.6
20260504230557 71 205 5.2 9.6 0.00 0.00 0.00 28 1012.8
20260504230131 71 183 3.5 7.0 0.00 0.00 0.00 29 1012.8
20260504225533 71 185 0.9 7.0 0.00 0.00 0.00 29 1012.9
20260504225058 71 183 3.5 7.0 0.00 0.00 0.00 28 1013.1
20260504224600 71 182 3.5 7.0 0.00 0.00 0.00 29 1013.2
20260504224043 71 184 3.5 7.0 0.00 0.00 0.00 30 1013.2
20260504223549 71 186 3.5 12.2 0.00 0.00 0.00 30 1013.3
20260504223055 71 175 5.2 12.2 0.00 0.00 0.00 30 1013.3
20260504222538 71 174 3.5 10.4 0.00 0.00 0.00 30 1013.3
20260504222039 71 195 3.5 10.4 0.00 0.00 0.00 31 1013.3
20260504221545 72 197 5.2 10.4 0.00 0.00 0.00 30 1013.4
20260504221032 72 216 1.7 9.6 0.00 0.00 0.00 30 1013.4
20260504220538 72 215 5.2 8.7 0.00 0.00 0.00 29 1013.5
20260504220115 72 216 3.5 7.8 0.00 0.00 0.00 31 1013.6
20260504215534 72 216 4.3 8.7 0.00 0.00 0.00 31 1013.7
20260504215039 72 218 2.6 7.0 0.00 0.00 0.00 33 1013.6
20260504214556 72 218 4.3 8.7 0.00 0.00 0.00 33 1013.5
20260504214033 72 218 3.5 10.4 0.00 0.00 0.00 32 1013.6
20260504213558 73 218 4.3 10.4 0.00 0.00 0.00 32 1013.6
20260504213038 73 228 3.5 9.6 0.00 0.00 0.00 32 1013.5
20260504212603 73 214 5.2 9.6 0.00 0.00 0.00 32 1013.5
20260504212106 73 216 5.2 9.6 0.00 0.00 0.00 32 1013.5
20260504211546 74 210 4.3 10.4 0.00 0.00 0.00 33 1013.5
20260504211054 74 204 3.5 10.4 0.00 0.00 0.00 33 1013.5